Total_Precipitation_Accumulation
0.27 0.25 0.34 0.53 0.63 0.56 0.60 0.70 0.95 0.83 0.69 0.65 0.59 0.62 0.64 0.68 0.72 0.71 0.76 0.74 0.70 0.68 0.69 0.75 0.74 0.71 0.77 0.85 0.94 1.06 1.13 1.03 0.90 0.77 0.67 0.62 0.65 0.62 0.66 0.73 0.72 0.76 0.80 0.90
0.13 0.13 0.22 0.45 0.55 0.56 0.56 0.55 0.55 0.46 0.45 0.37 0.35 0.41 0.43 0.47 0.46 0.45 0.49 0.49 0.47 0.43 0.44 0.49 0.44 0.46 0.50 0.59 0.75 0.94 1.03 0.92 0.75 0.67 0.65 0.59 0.57 0.54 0.54 0.57 0.61 0.64 0.68 0.84
0.18 0.15 0.23 0.45 0.46 0.51 0.39 0.25 0.22 0.26 0.27 0.21 0.25 0.33 0.35 0.40 0.40 0.35 0.35 0.37 0.38 0.39 0.37 0.40 0.37 0.38 0.45 0.52 0.65 0.74 0.78 0.72 0.60 0.54 0.50 0.47 0.46 0.47 0.48 0.50 0.53 0.58 0.61 0.76
0.28 0.28 0.49 0.64 0.49 0.43 0.36 0.22 0.14 0.14 0.13 0.15 0.21 0.27 0.27 0.32 0.38 0.34 0.30 0.31 0.33 0.35 0.36 0.41 0.44 0.45 0.54 0.60 0.59 0.62 0.68 0.67 0.57 0.49 0.45 0.43 0.41 0.42 0.51 0.51 0.50 0.55 0.58 0.61
0.37 0.40 0.49 0.51 0.35 0.32 0.41 0.38 0.17 0.12 0.12 0.12 0.15 0.20 0.19 0.21 0.25 0.25 0.21 0.19 0.19 0.21 0.22 0.27 0.32 0.36 0.38 0.39 0.41 0.42 0.45 0.51 0.46 0.38 0.40 0.44 0.42 0.46 0.50 0.50 0.54 0.55 0.58 0.60
0.42 0.44 0.54 0.42 0.20 0.17 0.31 0.53 0.23 0.10 0.08 0.06 0.08 0.13 0.12 0.11 0.11 0.12 0.12 0.09 0.09 0.10 0.10 0.11 0.15 0.23 0.26 0.22 0.20 0.20 0.23 0.28 0.31 0.29 0.32 0.38 0.48 0.53 0.50 0.47 0.51 0.53 0.51 0.50
0.52 0.63 0.75 0.52 0.25 0.19 0.40 0.52 0.21 0.08 0.04 0.04 0.04 0.05 0.06 0.07 0.08 0.07 0.07 0.07 0.07 0.07 0.08 0.09 0.11 0.15 0.16 0.17 0.14 0.14 0.15 0.17 0.20 0.23 0.28 0.37 0.43 0.41 0.39 0.41 0.44 0.45 0.48 0.47
0.69 0.89 1.03 0.67 0.43 0.39 0.35 0.22 0.12 0.05 0.03 0.04 0.04 0.04 0.05 0.07 0.07 0.07 0.06 0.07 0.06 0.06 0.08 0.09 0.09 0.08 0.10 0.10 0.11 0.12 0.11 0.11 0.13 0.15 0.17 0.22 0.29 0.33 0.34 0.36 0.36 0.35 0.36 0.37
0.73 0.76 0.69 0.51 0.40 0.30 0.22 0.14 0.06 0.04 0.04 0.03 0.03 0.03 0.04 0.05 0.05 0.06 0.05 0.05 0.05 0.07 0.08 0.08 0.08 0.07 0.08 0.10 0.13 0.14 0.11 0.09 0.10 0.13 0.14 0.16 0.23 0.27 0.31 0.34 0.35 0.32 0.30 0.32
0.28 0.31 0.28 0.23 0.19 0.15 0.11 0.08 0.03 0.03 0.03 0.04 0.04 0.03 0.04 0.05 0.05 0.06 0.05 0.05 0.07 0.10 0.10 0.09 0.09 0.10 0.11 0.12 0.13 0.14 0.12 0.11 0.11 0.13 0.14 0.14 0.18 0.25 0.33 0.32 0.28 0.28 0.30 0.32
0.13 0.13 0.13 0.12 0.11 0.10 0.08 0.04 0.03 0.02 0.03 0.05 0.05 0.05 0.05 0.06 0.08 0.08 0.06 0.05 0.07 0.09 0.11 0.12 0.12 0.13 0.14 0.13 0.12 0.12 0.12 0.11 0.11 0.12 0.14 0.14 0.14 0.17 0.24 0.27 0.24 0.26 0.29 0.33
0.11 0.08 0.08 0.09 0.07 0.06 0.06 0.04 0.04 0.03 0.04 0.04 0.04 0.06 0.08 0.07 0.10 0.11 0.08 0.06 0.06 0.06 0.09 0.11 0.12 0.14 0.14 0.16 0.15 0.15 0.13 0.13 0.13 0.12 0.13 0.12 0.13 0.14 0.17 0.17 0.20 0.19 0.18 0.21
0.08 0.05 0.05 0.06 0.05 0.05 0.06 0.05 0.05 0.05 0.05 0.06 0.06 0.08 0.09 0.08 0.11 0.12 0.11 0.10 0.09 0.07 0.08 0.09 0.11 0.12 0.12 0.15 0.15 0.16 0.16 0.15 0.14 0.13 0.12 0.11 0.13 0.16 0.16 0.14 0.11 0.11 0.10 0.10
0.05 0.04 0.05 0.06 0.06 0.05 0.05 0.05 0.06 0.07 0.08 0.08 0.08 0.08 0.07 0.08 0.11 0.09 0.11 0.14 0.13 0.10 0.11 0.11 0.11 0.12 0.14 0.16 0.17 0.18 0.19 0.21 0.17 0.14 0.13 0.13 0.15 0.19 0.24 0.26 0.20 0.12 0.10 0.10
0.07 0.06 0.06 0.07 0.06 0.05 0.05 0.05 0.06 0.06 0.08 0.08 0.07 0.07 0.07 0.09 0.10 0.11 0.10 0.11 0.11 0.11 0.10 0.11 0.11 0.12 0.14 0.15 0.16 0.17 0.21 0.23 0.21 0.22 0.18 0.17 0.19 0.24 0.27 0.26 0.21 0.16 0.13 0.10
0.11 0.08 0.08 0.07 0.07 0.06 0.05 0.05 0.05 0.05 0.07 0.08 0.06 0.07 0.08 0.09 0.10 0.14 0.11 0.08 0.08 0.09 0.09 0.11 0.12 0.12 0.13 0.13 0.13 0.13 0.16 0.21 0.23 0.25 0.23 0.19 0.18 0.19 0.21 0.20 0.17 0.16 0.16 0.14
0.08 0.09 0.09 0.09 0.09 0.08 0.06 0.06 0.06 0.05 0.04 0.05 0.06 0.07 0.08 0.07 0.08 0.13 0.14 0.11 0.10 0.08 0.08 0.10 0.13 0.12 0.11 0.10 0.11 0.12 0.13 0.13 0.15 0.18 0.21 0.19 0.18 0.15 0.16 0.19 0.17 0.16 0.15 0.13
0.05 0.06 0.07 0.08 0.08 0.08 0.07 0.06 0.06 0.05 0.04 0.04 0.04 0.05 0.06 0.06 0.07 0.11 0.14 0.14 0.13 0.11 0.10 0.11 0.11 0.10 0.10 0.10 0.10 0.11 0.11 0.11 0.11 0.13 0.17 0.20 0.19 0.17 0.17 0.18 0.18 0.17 0.17 0.16
0.04 0.04 0.04 0.04 0.04 0.06 0.06 0.07 0.07 0.06 0.04 0.03 0.03 0.03 0.05 0.06 0.07 0.09 0.11 0.13 0.15 0.17 0.17 0.16 0.16 0.14 0.11 0.11 0.11 0.10 0.10 0.10 0.12 0.13 0.16 0.17 0.18 0.18 0.18 0.19 0.19 0.19 0.17 0.17
0.06 0.06 0.05 0.04 0.04 0.03 0.04 0.05 0.06 0.07 0.06 0.05 0.04 0.04 0.04 0.05 0.06 0.07 0.06 0.08 0.11 0.14 0.15 0.19 0.20 0.20 0.18 0.16 0.16 0.14 0.13 0.14 0.16 0.18 0.18 0.17 0.17 0.18 0.19 0.19 0.20 0.20 0.20 0.21
0.07 0.06 0.06 0.05 0.04 0.03 0.03 0.03 0.04 0.05 0.06 0.06 0.06 0.06 0.06 0.05 0.05 0.05 0.05 0.05 0.06 0.08 0.10 0.14 0.17 0.20 0.22 0.23 0.23 0.19 0.18 0.17 0.18 0.19 0.19 0.19 0.18 0.18 0.19 0.20 0.20 0.22 0.23 0.23
0.08 0.05 0.04 0.04 0.03 0.03 0.03 0.03 0.03 0.04 0.05 0.06 0.07 0.07 0.06 0.05 0.05 0.05 0.05 0.06 0.07 0.09 0.10 0.11 0.13 0.17 0.23 0.25 0.21 0.20 0.20 0.18 0.19 0.18 0.19 0.20 0.22 0.22 0.22 0.23 0.23 0.23 0.23 0.23
0.09 0.08 0.07 0.06 0.05 0.05 0.04 0.04 0.04 0.04 0.05 0.06 0.06 0.05 0.05 0.06 0.07 0.08 0.07 0.07 0.07 0.10 0.10 0.11 0.14 0.19 0.24 0.20 0.17 0.17 0.17 0.17 0.17 0.18 0.19 0.21 0.23 0.25 0.25 0.26 0.26 0.26 0.29 0.31
0.09 0.09 0.09 0.08 0.08 0.08 0.08 0.07 0.07 0.07 0.07 0.08 0.08 0.08 0.08 0.09 0.11 0.11 0.11 0.11 0.12 0.14 0.12 0.14 0.18 0.23 0.25 0.18 0.17 0.19 0.19 0.19 0.19 0.20 0.21 0.23 0.24 0.25 0.27 0.29 0.28 0.28 0.30 0.35
0.10 0.09 0.09 0.09 0.09 0.09 0.10 0.10 0.09 0.09 0.09 0.09 0.09 0.11 0.11 0.11 0.13 0.14 0.15 0.15 0.17 0.20 0.19 0.21 0.24 0.26 0.25 0.23 0.23 0.24 0.25 0.25 0.27 0.27 0.27 0.28 0.30 0.31 0.32 0.34 0.35 0.35 0.35 0.37
0.12 0.10 0.09 0.10 0.10 0.10 0.10 0.11 0.12 0.12 0.12 0.12 0.11 0.12 0.13 0.15 0.17 0.18 0.20 0.21 0.22 0.25 0.24 0.25 0.26 0.27 0.26 0.29 0.32 0.33 0.32 0.32 0.33 0.31 0.30 0.32 0.34 0.34 0.35 0.38 0.41 0.43 0.44 0.43
0.13 0.11 0.10 0.11 0.11 0.11 0.11 0.12 0.14 0.15 0.17 0.17 0.15 0.15 0.15 0.16 0.19 0.21 0.21 0.21 0.23 0.26 0.27 0.29 0.30 0.30 0.29 0.30 0.33 0.36 0.37 0.36 0.36 0.37 0.36 0.38 0.40 0.41 0.41 0.41 0.44 0.47 0.49 0.50